Regional Weather Roundup
Issued by NWS

Home | Current Version | Previous Version | Text Only | Print | Product List | Glossary On
Versions: 1 2 3 4 5 6 7 8 9 10 11 12 13 14 15 16 17 18 19 20 21 22 23 24 25 26 27 28 29 30 31 32 33 34 35 36 37 38 39 40 41 42 43 44 45 46 47 48 49 50
000
ASUS43 KBIS 010502
RWRND

NORTH DAKOTA REGIONAL WEATHER ROUNDUP
NATIONAL WEATHER SERVICE BISMARCK ND
1200 AM CDT MON MAY 01 2017

NOTE: "FAIR" INDICATES FEW OR NO CLOUDS BELOW 12,000 FEET WITH NO
SIGNIFICANT WEATHER AND/OR OBSTRUCTIONS TO VISIBILITY.


NDZ001>003-009>011-017-010600-
NORTHWEST NORTH DAKOTA

CITY           SKY/WX    TMP DP  RH WIND       PRES   REMARKS
WILLISTON      FAIR      50  33  52 SW7       29.77F
MINOT          FAIR      47  27  45 SE9       29.81F
MINOT AFB      PTCLDY    45  30  55 SE9       29.80F
$$

NDZ018>021-031>035-040>046-010600-
SOUTHWEST NORTH DAKOTA

CITY           SKY/WX    TMP DP  RH WIND       PRES   REMARKS
BISMARCK       FAIR      43  30  60 NE7       29.84F
DICKINSON      CLOUDY    44  22  41 SE10      29.80F
GARRISON         N/A     43  29  57 E6        29.82F
HETTINGER ARPT MOCLDY    42  25  50 SE7       29.84S
$$

NDZ004>008-012>016-024-026-027-054-010600-
NORTHEAST NORTH DAKOTA

CITY           SKY/WX    TMP DP  RH WIND       PRES   REMARKS
GRAND FORKS    CLEAR     48  34  58 NE9       29.84F
GRND FRKS AFB  CLEAR     40  31  68 NE3       29.85F
DEVILS LAKE    FAIR      45  39  79 CALM      29.86F
$$

NDZ022-023-025-028>030-036>039-047>053-010600-
SOUTHEAST NORTH DAKOTA

CITY           SKY/WX    TMP DP  RH WIND       PRES   REMARKS
FARGO          CLOUDY    44  25  47 NE5       29.81F
JAMESTOWN      FAIR      42  30  62 NE8       29.82F
$$




USA.gov is the U.S. government's official web portal to all federal, state and local government web resources and services.